Location: ??????
(38.5153°N, 23.0340°E)
Time: 06:02:58
(UTC+00:00)

Okean 1-7 Rocket - Pass Details

Date: 13 December 2025
Orbit: 610 x 643 km, 82.5° (Epoch: 20 January)

Event Time Altitude Azimuth Distance (km) Brightness Sun altitude
Rises 15:49:05 0° 352° (N) 2,890 6.8 -8.1°
Reaches altitude 10° 15:51:19 10° 352° (N) 1,978 6.0 -8.5°
Maximum altitude 15:55:42 88° 268° (W) 617 3.6 -9.3°
Drops below altitude 10° 16:00:02 10° 175° (S) 1,956 6.3 -10.1°
Sets 16:02:14 0° 175° (S) 2,856 7.2 -10.5°
